Temp_Advection
nan nan nan nan nan nan nan nan nan nan nan nan nan nan nan nan nan nan nan nan nan nan nan nan nan nan nan nan nan nan nan nan nan nan nan nan nan nan nan nan nan nan nan nan nan
nan -0 -0 -0 -0 -0 -0 -0 -0 -0 -0 -0 -0 -0 -0 0 0 -2 -1 0 0 -0 -0 -0 -0 -0 -0 -0 -0 -0 0 -0 -0 0 -0 -0 -0 -0 -0 -1 -1 -1 0 0 nan
nan -0 -0 -0 -0 -0 -0 -0 -0 -0 -0 -0 -0 -0 -0 0 -0 -1 0 0 0 0 -0 -0 -0 -0 -0 -0 -0 -0 -0 -0 -0 -0 -0 -0 -0 -0 -0 -0 -0 -1 -2 -0 nan
nan -0 -0 -0 -0 -0 -0 -0 -0 -0 -0 -0 -0 -0 0 -0 -0 0 0 0 0 0 -0 -0 -0 -0 -0 -0 -0 -0 -0 -0 -0 -1 -0 -0 -0 -0 -0 -0 -0 -0 -1 -1 nan
nan -0 -0 -0 -0 -0 -0 -0 -0 -0 -0 -0 -0 -0 -0 -1 -0 0 -0 0 -0 -0 -0 -0 -0 -0 -0 -0 -0 0 -0 -1 -0 -0 -0 0 0 -0 -0 -0 -0 -0 -0 -0 nan
nan -0 -0 -0 -0 -0 -0 -0 -0 -0 -0 -0 0 -0 -1 -1 0 0 0 -0 -0 -1 -0 -0 -0 -0 0 -0 -0 -0 -0 -0 -0 -0 0 0 -0 -0 -0 -0 0 -0 -0 -0 nan
nan -0 -0 -0 -0 -0 -0 -0 -0 -0 -0 -0 -0 -0 -1 -0 0 0 0 1 -0 -0 0 -0 -0 -0 -0 -0 -0 0 0 -0 -1 -0 -0 0 0 -0 -1 0 -0 0 0 -0 nan
nan -0 0 -0 -0 -0 -0 -0 -0 -0 -0 -0 -0 -0 -0 0 0 -0 -0 0 0 0 0 0 -0 0 -0 -0 -1 -0 -0 -0 -1 -0 -0 -0 -0 -1 -1 0 -0 -0 -0 -0 nan
nan -0 -0 -0 -0 -0 0 -0 -0 -0 -0 0 -0 -0 -0 -0 -0 -0 0 -0 0 0 -0 -0 0 -0 -0 -0 -0 -0 -0 -0 -1 -1 -0 -0 -0 -1 -1 -1 -0 -0 -1 -1 nan
nan -0 -0 -0 -0 -0 0 -0 -0 -0 0 -0 -0 -0 -0 -0 -0 -0 0 0 -0 0 -0 0 -0 -0 -0 -0 0 -0 -0 -0 -0 -0 -0 0 -0 -0 -1 -1 -1 -2 -3 -3 nan
nan -0 -0 -0 -0 -0 -0 0 0 -0 -1 -0 -0 -0 -0 -0 -0 -0 -1 -0 -0 -1 -0 -0 -1 0 0 0 0 0 0 -0 -1 -0 0 0 -0 -0 -0 -2 -1 -1 -2 -3 nan
nan 0 -0 -0 -0 -0 -1 -1 -0 0 0 0 -0 -0 -0 -0 -0 -1 -1 -1 -1 -0 -1 -0 0 0 0 -0 -0 -0 0 -0 -1 -0 -0 -0 -0 0 -0 -1 -1 -0 -1 -2 nan
nan -0 0 -0 -0 -1 -1 -1 -0 0 0 -0 -0 -0 0 0 -0 -0 -1 -0 -0 -0 -0 0 -0 -0 -0 -0 -0 -0 0 -0 -0 -1 0 -0 -0 -0 -1 -0 -0 -0 -1 -1 nan
nan -0 -0 -0 -0 -1 -0 -0 -0 -0 -0 -0 -0 0 0 -0 -0 -0 -0 -0 -0 -0 -0 -0 -0 -0 -0 -0 0 -0 -0 0 1 -0 0 0 0 -0 -0 -0 -1 -0 -0 -1 nan
nan 0 -0 -1 -0 -0 0 -0 -0 -0 0 -0 -0 -0 -0 -0 0 -0 -0 -0 -0 -0 0 -0 -0 0 -0 -0 -0 -0 -1 0 1 0 -0 0 0 0 -0 -0 -0 -0 -0 -1 nan
nan -0 -0 -0 -0 0 0 -0 0 -0 -0 -0 -0 -0 -0 -0 -0 -0 -2 -1 -0 -0 -0 -0 -1 -0 -0 -0 -0 0 0 -1 -0 -0 0 -0 0 0 -0 -0 -0 -0 -0 -0 nan
nan -0 -0 -0 -0 0 -0 0 -0 0 -0 0 -0 -0 -0 -0 -0 -1 -0 -1 -0 -0 -1 -1 -1 -0 0 0 -0 -1 -0 -0 -0 -0 -0 0 -0 -0 0 0 -0 -0 -0 -0 nan
nan 0 0 -0 -0 -0 0 -0 0 0 -0 -0 -0 0 -0 -0 -0 -0 -0 -0 0 -0 -0 -0 -1 -0 -0 0 0 0 -0 -0 0 -0 -0 0 -0 -0 -0 0 0 -0 -0 -0 nan
nan 0 -0 -0 0 0 0 -0 -0 -0 -0 -0 -0 0 -0 -0 -0 -1 -0 0 -0 -0 -0 0 -1 -1 -0 -0 0 1 0 -0 0 -0 -0 -0 -0 0 0 0 0 0 -0 -0 nan
nan 0 -0 0 0 0 -1 -0 -0 -0 -0 0 -0 -0 0 -0 -0 -1 -0 -0 -0 -0 -0 -0 -0 -0 -1 -0 -0 -0 0 -0 -0 0 -0 -0 -0 -0 -0 -0 -0 -0 -0 -0 nan
nan -0 0 0 -0 -0 -0 -0 0 0 -0 -0 -0 -0 -0 0 -0 -0 -0 -0 0 0 0 -0 -0 -1 -0 -0 0 0 -0 -0 -0 -0 -0 0 0 -0 -0 -0 -0 -0 -0 -0 nan
nan -0 -0 -0 -0 -1 -0 0 -0 -0 -0 -0 -0 -0 0 -0 -0 -0 -0 -0 0 -0 0 -0 0 -0 -1 -1 -0 -0 -0 -0 -0 -0 -0 -0 0 0 0 -0 -0 -0 0 -0 nan
nan -0 -0 0 -0 0 -0 0 0 -0 -0 -0 -0 0 -0 -0 0 -0 -0 -0 -0 -0 -0 0 -0 -0 -1 -1 -1 -0 -0 -0 0 -0 -0 0 -0 -0 0 -0 -0 0 -0 -0 nan
nan -0 -0 -0 -0 -0 0 0 0 0 0 0 0 0 0 0 0 -0 -0 0 0 -0 -0 -0 0 0 -0 0 -0 -0 -1 -1 -0 0 -0 -0 -0 0 0 -0 0 -0 -0 -0 nan
nan -0 0 -0 -0 -0 -0 0 0 0 0 0 0 0 0 0 -0 -0 0 -0 0 -0 -0 -0 0 -0 -1 -1 -0 0 1 0 0 -1 -0 0 -0 -0 0 0 0 0 -0 -0 nan
nan 0 -0 -0 0 -0 0 -0 -0 -0 -0 0 0 0 -0 -0 -0 -0 0 -0 0 0 -0 0 -0 -0 -1 -1 0 -0 0 0 -0 -0 -0 -0 -0 0 -0 0 0 0 -0 -0 nan
nan nan nan nan nan nan nan nan nan nan nan nan nan nan nan nan nan nan nan nan nan nan nan nan nan nan nan nan nan nan nan nan nan nan nan nan nan nan nan nan nan nan nan nan nan
Wind_Speed
24 24 23 22 21 22 23 22 19 17 16 13 8 9 9 10 12 17 28 20 21 20 17 15 14 12 5 2 3 2 3 2 4 6 5 14 9 16 10 16 13 13 12 10 10
24 24 24 23 22 22 23 20 18 16 14 12 9 7 5 4 6 22 22 21 23 22 19 19 19 14 6 4 3 3 2 2 2 2 4 5 10 11 9 15 13 18 4 4 16
24 25 24 23 22 22 22 18 16 14 12 12 13 10 6 3 4 18 23 23 23 19 12 13 10 9 5 3 4 5 2 6 3 11 13 12 5 16 9 3 2 19 29 26 25
25 25 23 22 20 20 20 17 14 12 11 10 9 10 12 10 3 16 23 26 21 15 12 13 16 8 6 5 8 4 5 10 8 19 16 7 17 11 14 12 21 24 27 30 30
26 25 22 21 19 20 20 15 12 10 11 11 9 6 4 10 9 16 20 25 18 15 14 13 13 10 4 6 11 2 6 16 22 23 23 19 13 12 18 26 22 23 25 26 24
28 27 24 22 19 21 19 14 12 8 6 7 11 13 14 9 14 16 19 25 17 16 11 9 8 6 4 4 3 10 10 17 17 20 16 14 14 7 7 23 25 26 27 26 26
27 27 26 22 19 20 17 13 10 8 6 5 7 4 12 11 16 18 23 24 14 12 11 8 5 3 7 6 9 14 6 8 11 8 4 8 5 6 17 18 19 16 15 16 18
29 28 26 22 18 19 13 12 9 8 10 9 7 6 5 12 12 24 32 21 9 10 11 10 6 4 1 5 8 3 2 5 7 10 5 7 12 8 17 17 20 23 25 27 27
29 31 28 21 17 17 12 6 13 3 10 8 7 3 4 11 18 24 31 16 9 6 7 7 6 4 3 2 5 6 3 9 9 12 6 5 18 9 24 22 24 27 28 30 35
27 31 27 21 20 18 12 2 6 12 4 6 8 3 12 16 17 23 27 9 8 11 7 3 1 3 5 6 2 6 6 7 7 6 16 15 19 10 20 18 12 20 24 25 20
23 28 27 25 19 18 17 1 2 4 23 13 9 5 11 14 8 29 34 6 13 7 5 2 6 4 5 4 6 7 4 7 13 16 10 6 15 17 16 18 21 24 27 31 29
21 24 27 25 19 23 22 6 6 5 7 10 7 13 9 12 12 33 34 11 9 5 14 6 4 6 7 8 7 6 9 12 10 3 12 11 10 8 8 12 18 21 25 29 31
21 23 24 23 13 26 23 11 9 7 3 3 8 10 11 9 9 24 32 9 6 8 6 2 3 6 7 7 8 6 7 6 9 12 11 5 1 4 9 12 23 25 25 24 24
21 21 24 23 12 24 18 8 8 2 4 8 8 8 13 3 2 21 26 6 7 5 7 2 5 5 7 3 3 7 5 16 18 4 3 3 4 5 12 9 16 23 28 31 30
21 18 22 21 18 22 17 3 8 1 3 4 4 7 10 8 10 17 21 8 4 5 1 5 5 7 4 5 5 9 17 18 14 5 1 1 3 4 9 15 21 24 31 32 32
22 23 21 16 17 19 11 4 3 5 3 4 4 7 7 7 3 12 14 13 5 5 3 5 10 1 5 7 4 8 14 9 3 3 3 4 1 3 9 16 18 26 32 34 31
22 25 17 9 15 16 7 2 4 6 4 5 4 5 3 5 6 7 3 9 4 7 7 7 6 2 7 6 5 12 7 5 6 5 2 4 3 0 9 11 11 19 28 31 28
21 19 14 7 17 14 5 4 7 2 2 2 3 6 2 6 4 7 4 5 8 5 2 4 8 7 8 2 4 5 3 2 4 2 3 5 6 2 6 12 18 24 27 31 28
20 16 9 12 17 11 3 6 6 5 3 5 5 3 2 3 3 6 3 1 1 1 4 4 5 6 5 6 3 7 4 5 3 3 2 1 3 3 10 10 19 23 29 30 30
16 15 4 13 12 8 4 4 4 2 0 0 1 3 3 5 3 5 2 3 2 2 3 1 6 4 7 7 6 3 5 5 3 5 5 2 2 6 19 18 15 18 24 29 29
14 8 2 12 8 4 3 3 3 3 1 1 2 1 2 1 3 1 4 3 1 2 1 0 2 7 3 2 2 4 4 4 0 2 3 4 3 5 10 10 12 16 22 24 24
8 4 7 9 2 3 2 1 0 4 1 1 1 1 1 2 1 1 3 6 3 1 1 2 2 5 6 11 7 3 3 3 3 6 3 3 3 1 5 7 13 16 21 22 21
6 5 5 5 2 1 0 2 1 2 3 3 3 2 1 2 2 3 3 5 6 2 4 2 2 5 9 6 6 3 3 3 3 2 2 1 4 3 6 10 15 16 20 21 21
2 2 3 4 3 3 2 2 2 2 1 3 2 1 1 2 4 2 2 3 8 5 5 1 2 7 5 7 1 5 9 6 3 2 2 3 5 6 8 8 14 17 17 17 19
3 3 2 1 2 3 2 1 2 3 3 4 2 5 5 1 3 3 2 3 4 4 3 4 3 4 8 17 14 16 14 6 5 6 2 4 3 6 6 2 9 10 12 15 17
6 6 4 3 2 4 1 4 4 1 6 4 4 3 7 5 7 6 4 3 5 2 2 3 2 3 5 5 1 8 9 7 5 5 6 6 5 3 2 4 7 10 8 11 12
8 6 2 6 6 4 5 5 5 7 6 4 8 2 3 9 12 9 7 6 6 6 3 2 1 4 5 7 7 4 5 4 2 4 3 4 3 3 3 3 4 6 7 5 7
Wind_Direction
20 17 14 10 6 6 7 8 13 16 14 19 36 117 98 64 27 2 28 8 354 352 5 10 26 38 82 54 2 18 55 259 324 10 309 21 14 1 347 360 342 343 7 80 5
15 12 10 7 6 5 6 8 12 18 21 28 43 126 116 43 345 16 9 358 350 347 1 11 1 16 23 25 54 69 130 210 358 355 332 356 3 350 357 342 322 320 283 334 358
13 10 7 4 3 3 3 7 12 19 33 52 65 84 74 25 55 7 356 356 353 348 9 5 359 10 16 19 32 355 212 322 356 4 7 341 356 339 349 336 322 307 296 292 311
13 9 5 3 1 1 2 6 14 25 43 62 68 76 60 41 63 354 353 355 355 7 19 15 30 25 13 10 9 349 293 324 327 335 339 320 311 302 283 273 295 291 290 291 300
13 8 5 4 2 1 1 4 15 34 57 67 66 63 51 43 25 344 354 352 0 6 32 16 19 18 13 343 342 283 330 326 321 313 304 295 276 267 278 288 295 292 287 286 290
13 11 6 3 1 0 1 6 12 29 45 73 73 74 58 71 16 342 351 351 357 5 23 21 3 343 323 307 338 311 329 302 300 287 278 279 286 264 268 292 299 289 278 276 279
11 11 10 5 2 1 3 8 8 21 24 71 77 41 41 40 10 9 358 350 357 359 8 13 7 16 342 333 311 297 308 314 294 332 249 329 295 254 304 303 300 325 303 300 290
10 7 5 4 6 3 3 16 24 46 60 90 72 53 60 12 1 7 354 1 17 19 29 24 40 42 298 303 323 284 37 355 308 343 311 344 289 285 291 292 297 300 299 297 294
7 5 3 7 15 7 358 27 36 74 71 69 70 37 37 339 2 3 353 354 33 14 6 14 26 15 354 360 356 20 316 314 318 326 301 32 298 297 298 278 278 277 283 288 284
5 5 9 14 12 9 1 23 56 49 127 58 46 43 12 345 6 352 6 24 357 330 298 269 25 46 17 47 313 288 300 275 267 291 305 298 287 302 308 310 358 8 344 327 315
358 3 5 6 6 10 11 226 102 76 55 69 59 50 349 1 358 2 6 32 33 51 17 95 59 32 329 319 282 280 277 281 290 295 308 283 297 310 343 44 9 356 344 331 310
357 358 1 0 360 14 17 75 97 122 82 57 74 18 20 11 356 3 8 35 19 17 10 18 63 322 328 347 338 3 306 299 294 320 332 313 311 85 37 39 12 346 339 331 320
352 356 359 358 359 7 13 55 129 128 108 50 38 13 8 3 27 3 4 2 18 10 354 146 281 4 16 338 344 315 261 272 275 314 287 352 292 34 355 8 353 348 340 335 319
347 351 359 0 359 3 8 29 155 108 81 329 358 16 6 53 52 7 1 24 16 353 337 293 324 10 343 306 2 307 247 297 292 318 257 74 289 40 335 333 353 347 343 337 331
345 350 352 354 353 0 354 56 165 10 33 345 353 2 8 63 352 360 360 34 72 301 27 271 313 342 342 245 313 257 302 293 289 202 260 256 272 304 350 342 343 348 342 341 342
345 336 342 343 348 353 357 131 141 41 286 347 15 358 8 33 28 348 17 34 38 2 326 266 293 171 220 283 292 308 313 327 60 101 53 278 277 353 358 331 337 341 343 345 351
339 337 341 345 349 349 4 162 34 94 346 336 334 347 359 341 359 19 74 37 59 23 0 328 320 316 355 334 327 352 356 353 360 7 230 347 48 197 344 345 339 335 340 348 6
335 336 343 357 351 347 351 60 69 267 286 355 322 320 72 14 359 5 22 25 30 56 31 31 337 9 338 7 275 324 76 106 295 301 303 335 345 171 27 336 343 348 351 2 17
334 335 353 351 347 342 332 55 192 215 256 342 324 45 357 4 45 30 48 87 70 50 111 23 276 321 272 320 19 316 21 208 256 224 296 84 341 233 356 351 0 357 358 3 18
340 336 333 348 342 344 58 157 174 134 130 275 74 48 329 337 37 46 352 288 94 160 144 248 297 251 299 356 357 72 326 20 8 3 331 328 74 320 341 343 354 0 356 1 21
338 329 308 340 342 350 108 184 121 112 125 100 211 300 7 295 128 312 250 283 84 337 170 125 118 290 324 39 265 347 10 359 223 298 327 317 309 1 329 336 347 354 358 9 23
335 328 314 328 355 54 108 121 103 155 137 156 258 236 185 130 118 232 234 204 155 55 131 297 175 279 261 292 289 27 115 68 84 304 283 266 291 352 304 334 359 358 7 21 35
326 279 306 335 91 8 267 87 267 150 200 188 241 205 139 185 27 204 262 161 153 119 156 256 325 322 347 355 9 28 352 45 247 216 250 47 306 127 359 2 13 3 19 26 35
303 348 329 33 76 114 150 236 215 216 196 187 213 109 247 273 194 250 292 185 178 142 131 148 237 176 207 221 126 314 300 309 298 263 284 240 277 325 343 2 359 10 23 36 41
204 215 239 316 20 94 91 205 197 243 213 196 279 208 183 201 346 225 233 346 112 133 93 109 221 192 254 263 266 263 271 270 175 237 241 253 278 309 325 344 350 7 23 33 37
197 180 165 159 173 111 172 229 209 152 154 230 193 222 186 185 191 211 132 201 216 165 99 4 269 346 292 288 121 281 263 258 236 232 253 269 265 269 31 8 350 354 15 34 34
226 224 233 199 167 132 207 195 196 163 211 214 213 196 222 237 240 257 241 232 199 155 168 150 62 13 274 327 318 360 239 202 218 224 192 221 181 293 312 316 337 335 349 17 32
Height
1551 1548 1545 1543 1540 1537 1534 1531 1529 1527 1525 1523 1522 1522 1521 1519 1518 1517 1511 1518 1516 1512 1509 1506 1503 1501 1501 1502 1503 1503 1510 1511 1503 1503 1501 1499 1499 1497 1498 1495 1494 1493 1496 1497 1497
1553 1550 1546 1543 1540 1537 1535 1532 1529 1527 1525 1524 1522 1522 1522 1521 1520 1518 1522 1519 1516 1512 1508 1505 1503 1502 1503 1503 1504 1504 1512 1504 1505 1503 1503 1500 1500 1499 1498 1497 1494 1492 1493 1492 1493
1554 1550 1546 1543 1541 1538 1535 1532 1530 1527 1525 1524 1523 1523 1523 1522 1522 1524 1522 1519 1515 1511 1510 1508 1506 1504 1503 1504 1506 1507 1509 1505 1503 1503 1501 1499 1498 1499 1497 1497 1498 1497 1490 1490 1492
1555 1551 1548 1544 1541 1538 1535 1532 1530 1528 1526 1525 1525 1524 1524 1522 1530 1526 1523 1519 1515 1512 1509 1508 1507 1506 1507 1509 1509 1510 1506 1505 1503 1502 1501 1501 1498 1496 1497 1496 1495 1493 1492 1489 1489
1556 1552 1548 1545 1541 1538 1534 1532 1530 1528 1527 1526 1525 1525 1524 1524 1528 1527 1524 1520 1515 1512 1510 1509 1509 1509 1512 1511 1509 1508 1508 1505 1503 1500 1498 1497 1497 1495 1492 1493 1492 1490 1489 1488 1488
1557 1553 1549 1545 1541 1538 1534 1532 1530 1528 1528 1528 1526 1525 1525 1528 1529 1527 1523 1519 1515 1513 1511 1511 1512 1512 1511 1511 1511 1509 1508 1505 1500 1497 1497 1494 1491 1492 1490 1490 1489 1487 1485 1485 1485
1557 1554 1550 1545 1542 1538 1535 1533 1531 1530 1528 1528 1528 1526 1526 1532 1529 1527 1522 1519 1516 1514 1512 1512 1512 1512 1513 1511 1509 1507 1508 1504 1497 1497 1495 1492 1490 1490 1488 1487 1486 1484 1483 1482 1482
1557 1553 1550 1546 1542 1539 1535 1533 1532 1531 1530 1529 1529 1528 1530 1531 1530 1525 1520 1516 1515 1515 1513 1512 1511 1512 1513 1512 1509 1508 1508 1514 1500 1498 1495 1496 1485 1487 1484 1482 1481 1480 1479 1478 1477
1558 1553 1549 1546 1543 1539 1535 1534 1532 1531 1531 1531 1530 1529 1533 1533 1529 1525 1522 1516 1515 1515 1515 1513 1513 1513 1513 1515 1523 1517 1527 1517 1507 1499 1498 1498 1491 1485 1485 1480 1476 1474 1474 1473 1471
1559 1554 1550 1546 1543 1538 1535 1534 1533 1531 1531 1530 1532 1535 1535 1534 1530 1527 1522 1518 1515 1514 1514 1515 1515 1517 1519 1523 1538 1526 1523 1515 1512 1498 1495 1494 1486 1483 1479 1477 1477 1475 1472 1470 1466
1560 1556 1551 1547 1544 1539 1534 1533 1536 1535 1533 1538 1540 1540 1539 1537 1533 1529 1521 1518 1516 1516 1518 1515 1522 1528 1521 1517 1517 1516 1520 1515 1504 1495 1493 1490 1485 1479 1477 1477 1476 1474 1470 1465 1461
1560 1556 1552 1548 1544 1539 1536 1531 1535 1540 1540 1540 1540 1541 1540 1537 1534 1529 1524 1520 1520 1523 1519 1523 1528 1520 1517 1516 1515 1518 1518 1509 1500 1492 1491 1486 1486 1481 1479 1482 1482 1479 1472 1465 1458
1560 1557 1553 1549 1544 1539 1536 1534 1536 1538 1540 1541 1540 1539 1540 1539 1538 1534 1529 1525 1524 1526 1526 1526 1522 1517 1518 1518 1517 1516 1515 1508 1502 1493 1487 1488 1488 1486 1484 1481 1479 1477 1473 1466 1460
1560 1557 1553 1549 1547 1542 1539 1538 1538 1539 1549 1547 1542 1542 1540 1537 1539 1538 1532 1529 1527 1531 1526 1523 1519 1519 1519 1519 1517 1519 1502 1499 1495 1500 1503 1490 1499 1492 1486 1481 1481 1477 1471 1462 1455
1559 1557 1553 1548 1547 1543 1543 1538 1539 1541 1560 1547 1544 1544 1542 1541 1544 1540 1536 1529 1532 1532 1531 1525 1520 1520 1521 1521 1515 1512 1499 1492 1488 1500 1493 1490 1491 1503 1487 1480 1478 1473 1468 1461 1452
1559 1555 1552 1550 1546 1544 1540 1539 1542 1552 1573 1549 1546 1546 1544 1542 1543 1541 1539 1532 1532 1532 1529 1526 1519 1518 1521 1512 1510 1507 1495 1488 1486 1501 1512 1499 1493 1506 1499 1495 1483 1475 1468 1460 1452
1558 1554 1551 1549 1547 1543 1540 1541 1552 1567 1551 1552 1552 1549 1548 1548 1545 1544 1548 1548 1555 1557 1559 1536 1523 1518 1517 1515 1510 1509 1508 1533 1520 1522 1513 1491 1494 1506 1503 1498 1492 1483 1473 1464 1454
1557 1554 1552 1549 1547 1542 1539 1541 1565 1555 1558 1552 1550 1549 1550 1552 1551 1548 1549 1557 1553 1557 1569 1561 1546 1525 1521 1521 1522 1520 1520 1530 1539 1540 1501 1491 1498 1501 1502 1498 1493 1486 1477 1467 1458
1556 1553 1551 1550 1546 1543 1541 1561 1566 1565 1557 1558 1552 1550 1553 1553 1555 1554 1561 1560 1558 1559 1570 1575 1550 1529 1523 1521 1520 1518 1531 1519 1521 1523 1507 1498 1502 1502 1497 1496 1492 1486 1477 1471 1464
1554 1552 1550 1548 1546 1543 1545 1556 1555 1555 1556 1556 1558 1554 1555 1559 1558 1565 1570 1558 1557 1558 1557 1559 1562 1534 1525 1520 1520 1521 1521 1529 1531 1537 1525 1505 1515 1509 1500 1495 1494 1489 1483 1476 1470
1553 1550 1549 1547 1547 1547 1559 1557 1555 1555 1556 1558 1559 1555 1557 1564 1571 1575 1571 1558 1557 1557 1556 1557 1564 1543 1532 1530 1532 1529 1537 1530 1530 1524 1518 1507 1517 1513 1511 1505 1500 1495 1490 1484 1478
1554 1552 1550 1549 1548 1549 1556 1556 1556 1555 1555 1556 1557 1555 1555 1557 1565 1567 1566 1559 1557 1557 1562 1558 1562 1567 1540 1527 1526 1526 1532 1535 1543 1542 1527 1519 1512 1514 1512 1508 1503 1499 1493 1488 1484
1552 1552 1548 1548 1556 1556 1555 1554 1556 1556 1555 1556 1556 1555 1555 1557 1565 1558 1555 1554 1555 1557 1561 1560 1570 1572 1552 1538 1530 1538 1532 1537 1536 1537 1529 1531 1516 1511 1510 1506 1504 1501 1497 1492 1487
1553 1552 1549 1547 1549 1549 1553 1554 1554 1554 1554 1554 1554 1555 1556 1555 1554 1558 1555 1554 1554 1555 1555 1556 1561 1570 1571 1554 1550 1553 1538 1535 1532 1541 1542 1525 1521 1511 1510 1508 1505 1502 1500 1497 1492
1551 1551 1549 1551 1549 1551 1552 1554 1553 1554 1554 1554 1554 1553 1557 1565 1561 1557 1554 1554 1554 1554 1556 1558 1569 1565 1550 1542 1540 1536 1535 1538 1543 1530 1531 1526 1523 1513 1510 1509 1507 1505 1502 1499 1497
1545 1545 1546 1548 1548 1549 1550 1552 1551 1552 1552 1553 1555 1549 1552 1557 1554 1559 1557 1557 1555 1555 1558 1558 1566 1556 1552 1531 1532 1530 1524 1526 1529 1524 1523 1520 1516 1512 1510 1509 1508 1505 1504 1502 1499
1546 1546 1545 1544 1544 1546 1544 1543 1543 1545 1548 1547 1548 1550 1550 1547 1547 1548 1549 1549 1550 1554 1558 1558 1562 1567 1564 1538 1546 1535 1530 1527 1520 1520 1516 1521 1513 1511 1510 1509 1508 1506 1504 1504 1501